Ellensburg, WA
on Tuesday, November 13, 2012

Tuesday
Previous Day Next Day
Daily Summary
 ActualAverage (KYKM)Record (KYKM)
Temperature
Mean Temperature °F 38°F  
Max Temperature 39°F 49°F 72°F (1999)
Min Temperature 35°F 27°F 5°F (1959)
Degree Days
Heating Degree Days 28 27  
Month to date heating degree days 318  
Since 1 July heating degree days 1022  
Cooling Degree Days 0 0  
Month to date cooling degree days 0  
Year to date cooling degree days 472  
Moisture
Dew Point 32°F   
Average Humidity 82    
Maximum Humidity 87    
Minimum Humidity 75    
Precipitation
Precipitation 0.00 in 0.03 in 0.71 in (1966)
Month to date precipitation 0.40  
Year to date precipitation 6.07  
Snow
Snow 0.00 in 0.10 in 0.10 in (1955)
Month to date snowfall 0.6  
Year to date snowfall 9.3  
Since 1 July snowfall 0.7  
Snow Depth in   
Wind
Wind Speed 2 mph   
Max Wind Speed 5 mph   
Max Gust Speed mph   
Visibility 5 miles   
Events     

Key: T is trace of precipitation, MM is missing value
Source: NWS Daily Summary
Time(PST)TemperatureDew PointHumidity Pressure Visibility Wind DirectionWind SpeedGust SpeedPrecipitationEvents Conditions
12:15 AM 37.4°F 32.0°F 81% 30.25 in 3.0 miles Calm Calm - N/A   Haze
12:22 AM 37.4°F 32.0°F 81% 30.25 in 2.5 miles Calm Calm - N/A   Haze
12:36 AM 37.4°F 32.0°F 81% 30.25 in 1.0 miles NW 3.5 mph - N/A   Haze
12:53 AM 37.0°F 32.0°F 82% 30.29 in 1.2 miles North 3.5 mph - N/A   Haze
1:36 AM 37.4°F 32.0°F 81% 30.25 in 2.5 miles Calm Calm - N/A   Haze
1:53 AM 36.0°F 30.9°F 82% 30.29 in 4.0 miles North 3.5 mph - N/A   Haze
2:53 AM 36.0°F 30.9°F 82% 30.28 in 4.0 miles NNE 4.6 mph - N/A   Haze
3:23 AM 35.6°F 32.0°F 87% 30.24 in 2.5 miles Calm Calm - N/A   Overcast
3:53 AM 35.1°F 30.9°F 85% 30.28 in 2.5 miles NE 3.5 mph - N/A   Overcast
4:25 AM 35.6°F 30.2°F 81% 30.23 in 1.5 miles NNE 4.6 mph - N/A   Haze
4:41 AM 35.6°F 30.2°F 81% 30.24 in 2.0 miles NNE 4.6 mph - N/A   Overcast
4:53 AM 35.1°F 30.9°F 85% 30.27 in 2.0 miles NNE 4.6 mph - N/A   Overcast
5:33 AM 35.6°F 30.2°F 81% 30.23 in 4.0 miles NE 4.6 mph - N/A   Overcast
5:53 AM 35.1°F 30.9°F 85% 30.27 in 3.0 miles Calm Calm - N/A   Overcast
6:03 AM 35.6°F 30.2°F 81% 30.23 in 2.5 miles Calm Calm - N/A   Overcast
6:19 AM 35.6°F 30.2°F 81% 30.23 in 1.8 miles Calm Calm - N/A   Overcast
6:35 AM 35.6°F 30.2°F 81% 30.23 in 2.0 miles Calm Calm - N/A   Haze
6:43 AM 35.6°F 30.2°F 81% 30.23 in 1.5 miles Calm Calm - N/A   Haze
6:53 AM 36.0°F 32.0°F 86% 30.27 in 1.2 miles Calm Calm - N/A   Overcast
7:53 AM 36.0°F 30.9°F 82% 30.27 in 1.2 miles NNE 3.5 mph - N/A   Haze
8:00 AM 35.6°F 32.0°F 87% 30.23 in 1.0 miles NNE 3.5 mph - N/A   Overcast
8:06 AM 35.6°F 32.0°F 87% 30.23 in 2.0 miles NNE 3.5 mph - N/A   Overcast
8:15 AM 35.6°F 32.0°F 87% 30.23 in 3.0 miles North 3.5 mph - N/A   Overcast
8:23 AM 35.6°F 30.2°F 81% 30.23 in 1.8 miles Calm Calm - N/A   Haze
8:32 AM 35.6°F 30.2°F 81% 30.23 in 3.0 miles NNW 3.5 mph - N/A   Haze
8:53 AM 36.0°F 30.9°F 82% 30.27 in 10.0 miles NW 3.5 mph - N/A   Overcast
9:53 AM 36.0°F 30.9°F 82% 30.27 in 10.0 miles Calm Calm - N/A   Overcast
10:53 AM 37.0°F 30.9°F 79% 30.27 in 10.0 miles Calm Calm - N/A   Overcast
11:27 AM 37.4°F 32.0°F 81% 30.21 in 10.0 miles ESE 3.5 mph - N/A   Overcast
11:53 AM 37.9°F 32.0°F 79% 30.25 in 10.0 miles Calm Calm - N/A   Overcast
12:53 PM 39.0°F 32.0°F 76% 30.22 in 10.0 miles East 3.5 mph - N/A   Overcast
1:53 PM 39.0°F 32.0°F 76% 30.21 in 10.0 miles East 3.5 mph - N/A   Overcast
2:53 PM 39.0°F 32.0°F 76% 30.21 in 10.0 miles Calm Calm - N/A   Overcast
3:50 PM 39.2°F 32.0°F 75% 30.16 in 10.0 miles North 3.5 mph - N/A   Overcast
3:53 PM 37.9°F 32.0°F 79% 30.21 in 10.0 miles Calm Calm - N/A   Overcast
4:53 PM 37.9°F 33.1°F 83% 30.20 in 10.0 miles Calm Calm - N/A   Overcast
5:53 PM 37.9°F 33.1°F 83% 30.20 in 8.0 miles Calm Calm - N/A   Overcast
6:53 PM 37.9°F 33.1°F 83% 30.20 in 4.0 miles Calm Calm - N/A   Haze
7:30 PM 37.4°F 32.0°F 81% 30.17 in 2.5 miles Calm Calm - N/A   Haze
7:37 PM 37.4°F 32.0°F 81% 30.17 in 4.0 miles Calm Calm - N/A   Haze
7:53 PM 37.0°F 32.0°F 82% 30.21 in 7.0 miles North 4.6 mph - N/A   Overcast
8:53 PM 37.0°F 30.9°F 79% 30.20 in 10.0 miles Calm Calm - N/A   Overcast
9:53 PM 37.0°F 32.0°F 82% 30.21 in 8.0 miles Calm Calm - N/A   Overcast
10:51 PM 37.4°F 32.0°F 81% 30.17 in 4.0 miles East 3.5 mph - N/A   Haze
10:53 PM 37.0°F 32.0°F 82% 30.21 in 4.0 miles Calm Calm - N/A   Haze
11:34 PM 37.4°F 33.8°F 87% 30.17 in 2.5 miles Calm Calm - N/A   Overcast
11:53 PM 37.0°F 33.1°F 86% 30.21 in 3.0 miles Calm Calm - N/A   Overcast
Moon Phase
Nov. 13 Nov. 13 Nov. 20 Nov. 28 Dec. 06
Sunrise:07:03 AM (PST) Moon Rise:06:49 AM (PST)11/13
Sunset:04:28 PM (PST) Moon Set:04:24 PM (PST)11/13

Copyright © 2014 The Weather Underground, Inc.